TimeCDT,TemperatureF,Dew PointF,Humidity,Sea Level PressureIn,VisibilityMPH,Wind Direction,Wind SpeedMPH,Gust SpeedMPH,PrecipitationIn,Events,Conditions,WindDirDegrees,DateUTC
12:53 AM,60.1,59.0,96,29.83,10.0,SE,3.5,-,N/A,,Clear,130,2013-08-06 05:53:00
1:53 AM,61.0,60.1,97,29.79,10.0,South,8.1,-,N/A,,Clear,170,2013-08-06 06:53:00
2:53 AM,61.0,59.0,93,29.77,10.0,South,4.6,-,N/A,,Clear,170,2013-08-06 07:53:00
3:53 AM,61.0,57.9,90,29.74,10.0,Calm,Calm,-,N/A,,Clear,0,2013-08-06 08:53:00
4:53 AM,60.1,57.9,93,29.74,10.0,SSW,5.8,-,N/A,,Clear,200,2013-08-06 09:53:00
5:53 AM,61.0,59.0,93,29.75,10.0,SSW,6.9,-,N/A,,Clear,200,2013-08-06 10:53:00
6:53 AM,61.0,57.9,90,29.75,10.0,SSW,4.6,-,N/A,,Clear,200,2013-08-06 11:53:00
7:25 AM,60.8,57.2,88,29.77,10.0,SSW,4.6,-,N/A,,Partly Cloudy,200,2013-08-06 12:25:00
7:53 AM,64.0,59.0,84,29.75,10.0,Calm,Calm,-,N/A,,Clear,0,2013-08-06 12:53:00
8:53 AM,68.0,60.1,76,29.75,10.0,WSW,6.9,-,N/A,,Clear,240,2013-08-06 13:53:00
9:10 AM,71.6,60.8,69,29.75,10.0,West,11.5,16.1,N/A,,Scattered Clouds,260,2013-08-06 14:10:00
9:53 AM,73.9,61.0,64,29.74,10.0,West,15.0,-,N/A,,Clear,260,2013-08-06 14:53:00
10:53 AM,77.0,61.0,58,29.75,10.0,West,13.8,-,N/A,,Clear,270,2013-08-06 15:53:00
11:53 AM,80.1,61.0,52,29.74,10.0,West,13.8,-,N/A,,Clear,260,2013-08-06 16:53:00
12:53 PM,82.9,60.1,46,29.74,10.0,West,16.1,20.7,N/A,,Partly Cloudy,260,2013-08-06 17:53:00
1:53 PM,82.9,59.0,44,29.74,10.0,West,12.7,20.7,N/A,,Partly Cloudy,270,2013-08-06 18:53:00
2:53 PM,82.0,59.0,45,29.73,10.0,West,13.8,20.7,N/A,,Scattered Clouds,260,2013-08-06 19:53:00
3:53 PM,84.0,55.0,37,29.73,10.0,WNW,19.6,-,N/A,,Clear,290,2013-08-06 20:53:00
4:53 PM,84.0,55.0,37,29.73,10.0,West,17.3,27.6,N/A,,Partly Cloudy,260,2013-08-06 21:53:00
5:53 PM,82.0,53.1,37,29.75,10.0,WNW,17.3,26.5,N/A,,Scattered Clouds,290,2013-08-06 22:53:00
6:21 PM,73.4,59.0,61,29.80,10.0,North,19.6,25.3,N/A,,Scattered Clouds,360,2013-08-06 23:21:00
6:53 PM,75.0,57.9,55,29.80,10.0,North,17.3,-,N/A,,Clear,360,2013-08-06 23:53:00
7:53 PM,72.0,57.0,59,29.82,10.0,North,11.5,-,N/A,,Clear,10,2013-08-07 00:53:00
8:53 PM,66.9,59.0,76,29.84,10.0,North,6.9,-,N/A,,Clear,10,2013-08-07 01:53:00
9:53 PM,64.0,59.0,84,29.87,10.0,North,5.8,-,N/A,,Clear,360,2013-08-07 02:53:00
10:53 PM,62.1,59.0,90,29.89,10.0,North,8.1,-,N/A,,Clear,10,2013-08-07 03:53:00
11:53 PM,61.0,59.0,93,29.91,10.0,North,6.9,-,N/A,,Mostly Cloudy,10,2013-08-07 04:53:00